| time (UTC) | temp F | wind direction | speed knots | gust knots | rain 1hr in | rain 24hr in | rain mn in | humidity % | barometer mb |
| 20260504174537 | 66 | 20 | 7.8 | 14.8 | 0.00 | 0.00 | 0.00 | 35 | 1003.4 |
| 20260504173036 | 66 | 332 | 5.2 | 10.4 | 0.00 | 0.00 | 0.00 | 35 | 1003.3 |
| 20260504171533 | 66 | 32 | 4.3 | 10.4 | 0.00 | 0.00 | 0.00 | 35 | 1003.2 |
| 20260504081522 | 51 | 150 | 0.0 | 2.6 | 0.00 | 0.00 | 0.00 | 61 | 1001.9 |
| 20260504044602 | 51 | 300 | 0.0 | 0.0 | 0.00 | 0.00 | 0.00 | 59 | 1004.5 |
| 20260504043055 | 52 | 300 | 0.0 | 0.0 | 0.00 | 0.00 | 0.00 | 58 | 1004.8 |
| 20260504041547 | 53 | 300 | 0.0 | 0.0 | 0.00 | 0.00 | 0.00 | 55 | 1005.1 |
| 20260504040103 | 54 | 300 | 0.0 | 0.0 | 0.00 | 0.00 | 0.00 | 54 | 1005.4 |
| 20260504034608 | 54 | 300 | 0.0 | 0.0 | 0.00 | 0.00 | 0.00 | 54 | 1005.5 |
| 20260504033041 | 55 | 300 | 0.0 | 0.9 | 0.00 | 0.00 | 0.00 | 53 | 1005.8 |
| 20260504031540 | 55 | 300 | 0.0 | 0.9 | 0.00 | 0.00 | 0.00 | 52 | 1005.8 |
| 20260504030048 | 56 | 300 | 0.0 | 0.0 | 0.00 | 0.00 | 0.00 | 50 | 1005.9 |
| 20260504024539 | 57 | 300 | 0.0 | 0.0 | 0.00 | 0.00 | 0.00 | 48 | 1005.9 |
| 20260504023039 | 58 | 300 | 0.0 | 0.0 | 0.00 | 0.00 | 0.00 | 47 | 1005.8 |
| 20260504021537 | 59 | 300 | 0.0 | 0.0 | 0.00 | 0.00 | 0.00 | 45 | 1005.9 |
| 20260504020035 | 60 | 300 | 0.0 | 0.0 | 0.00 | 0.00 | 0.00 | 44 | 1006.0 |
| 20260504014535 | 61 | 300 | 0.0 | 0.0 | 0.00 | 0.00 | 0.00 | 41 | 1006.1 |
| 20260504013046 | 63 | 300 | 0.0 | 0.9 | 0.00 | 0.00 | 0.00 | 38 | 1006.1 |
| 20260504011533 | 65 | 300 | 0.0 | 0.9 | 0.00 | 0.00 | 0.00 | 35 | 1006.1 |
| 20260504010031 | 68 | 300 | 0.0 | 5.2 | 0.00 | 0.00 | 0.00 | 31 | 1006.2 |
| 20260504004530 | 69 | 240 | 0.9 | 5.2 | 0.00 | 0.00 | 0.00 | 31 | 1006.4 |
| 20260504003027 | 70 | 268 | 1.7 | 7.0 | 0.00 | 0.00 | 0.00 | 31 | 1006.5 |
| 20260504001526 | 70 | 280 | 3.5 | 9.6 | 0.00 | 0.00 | 0.00 | 30 | 1006.7 |
| 20260504000025 | 71 | 297 | 1.7 | 7.0 | 0.00 | 0.00 | 0.00 | 29 | 1006.7 |
| 20260503234526 | 71 | 293 | 2.6 | 6.1 | 0.00 | 0.00 | 0.00 | 29 | 1007.0 |
| 20260503233023 | 72 | 278 | 2.6 | 7.8 | 0.00 | 0.00 | 0.00 | 29 | 1007.0 |
| 20260503231522 | 71 | 257 | 2.6 | 9.6 | 0.00 | 0.00 | 0.00 | 30 | 1007.1 |
| 20260503230020 | 72 | 327 | 0.9 | 13.0 | 0.00 | 0.00 | 0.00 | 29 | 1007.2 |
| 20260503224520 | 72 | 295 | 4.3 | 8.7 | 0.00 | 0.00 | 0.00 | 29 | 1007.2 |
| 20260503223018 | 72 | 252 | 2.6 | 6.1 | 0.00 | 0.00 | 0.00 | 29 | 1007.2 |
| 20260503221515 | 72 | 316 | 2.6 | 10.4 | 0.00 | 0.00 | 0.00 | 30 | 1007.5 |
| 20260503220014 | 72 | 353 | 1.7 | 10.4 | 0.00 | 0.00 | 0.00 | 30 | 1007.5 |
| 20260503214512 | 72 | 5 | 2.6 | 7.8 | 0.00 | 0.00 | 0.00 | 32 | 1007.6 |
| 20260503213010 | 72 | 345 | 4.3 | 10.4 | 0.00 | 0.00 | 0.00 | 31 | 1007.8 |
| 20260503211507 | 72 | 307 | 3.5 | 11.3 | 0.00 | 0.00 | 0.00 | 32 | 1008.1 |
| 20260503210009 | 72 | 302 | 2.6 | 7.8 | 0.00 | 0.00 | 0.00 | 35 | 1008.1 |
| 20260503204506 | 72 | 309 | 3.5 | 8.7 | 0.00 | 0.00 | 0.00 | 32 | 1008.4 |
| 20260503203004 | 71 | 58 | 2.6 | 7.0 | 0.00 | 0.00 | 0.00 | 32 | 1008.6 |
| 20260503201504 | 72 | 5 | 4.3 | 8.7 | 0.00 | 0.00 | 0.00 | 33 | 1008.9 |
| 20260503200002 | 71 | 307 | 0.9 | 6.1 | 0.00 | 0.00 | 0.00 | 35 | 1008.9 |
| 20260503194601 | 71 | 344 | 5.2 | 10.4 | 0.00 | 0.00 | 0.00 | 32 | 1009.0 |
| 20260503193112 | 70 | 27 | 4.3 | 9.6 | 0.00 | 0.00 | 0.00 | 35 | 1009.2 |
| 20260503191600 | 70 | 21 | 2.6 | 10.4 | 0.00 | 0.00 | 0.00 | 35 | 1009.6 |
| 20260503190110 | 70 | 323 | 4.3 | 13.0 | 0.00 | 0.00 | 0.00 | 34 | 1009.7 |
| 20260503184556 | 69 | 314 | 3.5 | 7.8 | 0.00 | 0.00 | 0.00 | 36 | 1009.8 |
| 20260503183102 | 69 | 20 | 3.5 | 11.3 | 0.00 | 0.00 | 0.00 | 38 | 1009.8 |
| 20260503181553 | 69 | 303 | 4.3 | 10.4 | 0.00 | 0.00 | 0.00 | 36 | 1010.3 |
| 20260503180057 | 69 | 328 | 4.3 | 11.3 | 0.00 | 0.00 | 0.00 | 36 | 1010.4 |